Regional Weather Roundup
Issued by NWS

Home | Current Version | Previous Version | Graphics & Text | Print | Product List | Glossary Off
Versions: 1 2 3 4 5 6 7 8 9 10 11 12 13 14 15 16 17 18 19 20 21 22 23 24 25 26 27 28 29 30 31 32 33 34 35 36 37 38 39 40 41 42 43 44 45 46 47 48 49 50

000
ASUS45 KSLC 261210
RWRUT

UTAH REGIONAL WEATHER ROUNDUP
NATIONAL WEATHER SERVICE SALT LAKE CITY UT
600 AM MDT TUE MAY 26 2015

UTZ001>011-023>025-261300-

NORTHERN UTAH

CITY           SKY/WX    TMP DP  RH WIND       PRES   REMARKS
BRIGHAM CITY   MOCLDY    53  49  87 CALM      30.00R
HILL AFB       CLOUDY    52  46  79 E9        30.01R
LOGAN          CLOUDY    49  43  80 SE7       30.00S
OGDEN          CLOUDY    51  47  86 S8        30.00R
PROVO AIRPORT  MOCLDY    54  45  71 SE10      30.02R
SALT LAKE CITY MOCLDY    58  48  69 NE5       29.99R
VERNAL         CLEAR     44  39  82 W5        30.06R
WENDOVER       CLOUDY    54  46  76 N5        29.99S
HEBER CITY     PTCLDY    37  36  93 CALM      30.06R
WEST JORDAN    CLOUDY    55  48  76 S9        30.01R

$$

UTZ012>022-026-027-261300-

SOUTHERN/CENTRAL UTAH

CITY           SKY/WX    TMP DP  RH WIND       PRES   REMARKS
BLANDING       PTCLDY    46  42  84 CALM      30.15S
BRYCE CANYON   CLOUDY    44  39  82 W10       30.17R
CEDAR CITY     LGT RAIN  50  47  89 E5        30.12F
DELTA          CLOUDY    52  47  83 S6        30.04R
HANKSVILLE     CLOUDY    50  45  81 CALM      30.03R
MILFORD        LGT RAIN  52  49  89 S18       30.07S
MOAB/CYNLANDS  PTCLDY    49  41  74 CALM      30.00R
PRICE          CLOUDY    50  41  71 CALM      30.05R
ST GEORGE      MOSUNNY   63  43  48 SE6       30.00R
KANAB          CLOUDY    52  46  82 N7        30.10R

$$

REGIONAL REPORTS     COLORADO/ARIZONA

CITY           SKY/WX    TMP DP  RH WIND       PRES   REMARKS
CRAIG, CO      CLOUDY    41  39  93 CALM      30.09S
GRAND JUNCTION PTCLDY    47  45  93 SE10      30.05R
RIFLE          MOCLDY    44  41  89 N5        30.10R
MONTROSE       PTCLDY    44  39  82 SE9       30.12R
CORTEZ         CLEAR     37  36  96 CALM      30.11S
PAGE, AZ       MOCLDY    60  42  51 SW5       30.01R
GRAND CANYON   CLEAR     36  35  96 CALM      30.15S
KINGMAN        PTCLDY    58  35  42 SE10      29.99S
FLAGSTAFF      CLEAR     35  34  96 CALM      30.18S

$$

REGIONAL REPORTS    NEVADA/IDAHO/WYOMING

CITY           SKY/WX    TMP DP  RH WIND       PRES   REMARKS
LAS VEGAS, NV  MOCLDY    73  40  30 S10       29.85R
ELY            PTCLDY    44  42  93 S8        30.09R
ELKO           CLOUDY    48  44  86 N3        30.03R
POCATELLO, ID  CLOUDY    50  48  93 E5        29.99R
BURLEY         CLOUDY    52  45  77 SW8       29.96R
EVANSTON, WY   CLOUDY    41  37  86 S6        30.09R
ROCK SPRINGS   CLEAR     41  37  86 SW8       30.07R
KEMMERER       PTCLDY    36  34  93 CALM      30.10R

$$


USA.gov is the U.S. government's official web portal to all federal, state and local government web resources and services.